When you browse on this site, cookies collect data to enhance your experience and personalize the content and advertising you see.
Visit our Privacy Policy to learn more. By continuing to use the site, you agree to this use of cookies and data.
  • In Portugal
  • List of Countries
  • For 7 days
  • Water Temperature
  • Satellite Maps
  • Weather Map
  • Weather Widgets
  • user-avatar
    Login

    Hourly Weather Luchek

    Today, 24 June, Monday

    Time Temperature Precipitation Wind Pressure Humidity
    00:00 +16°C° 0 mm 1 mps 636 mmHg 80%
    01:00 +16°C° 0 mm 1 mps 636 mmHg 78%
    02:00 +16°C° 0 mm 1 mps 636 mmHg 77%
    03:00 +16°C° 0 mm 2 mps 636 mmHg 73%
    04:00 +19°C° 0 mm 1 mps 636 mmHg 71%
    05:00 +20°C° 0 mm 1 mps 637 mmHg 68%
    06:00 +22°C° 0 mm 1 mps 638 mmHg 66%
    07:00 +23°C° 0 mm 1 mps 638 mmHg 62%
    08:00 +25°C° 0 mm 1 mps 638 mmHg 58%
    09:00 +26°C° 0 mm 2 mps 639 mmHg 53%
    10:00 +27°C° 0.8 mm 2 mps 639 mmHg 55%
    11:00 +27°C° 0.8 mm 2 mps 639 mmHg 57%
    12:00 +27°C° 0.8 mm 3 mps 639 mmHg 59%
    13:00 +27°C° 0.9 mm 3 mps 639 mmHg 58%
    14:00 +27°C° 0.9 mm 3 mps 638 mmHg 56%
    15:00 +26°C° 0 mm 2 mps 638 mmHg 58%
    16:00 +26°C° 0.4 mm 2 mps 638 mmHg 60%
    17:00 +25°C° 0.4 mm 1 mps 638 mmHg 62%
    18:00 +25°C° 0.4 mm 1 mps 638 mmHg 65%
    19:00 +23°C° 0.1 mm 1 mps 637 mmHg 68%
    20:00 +21°C° 0.1 mm 1 mps 637 mmHg 71%
    21:00 +19°C° 0.1 mm 1 mps 637 mmHg 74%
    22:00 +18°C° 0 mm 1 mps 636 mmHg 73%
    23:00 +18°C° 0 mm 1 mps 636 mmHg 72%

    Tomorrow, 25 June, Tuesday

    Time Temperature Precipitation Wind Pressure Humidity
    00:00 +18°C° 0 mm 1 mps 636 mmHg 71%
    01:00 +18°C° 0 mm 1 mps 636 mmHg 70%
    02:00 +16°C° 0 mm 1 mps 636 mmHg 69%
    03:00 +16°C° 0 mm 1 mps 636 mmHg 68%
    04:00 +19°C° 0 mm 1 mps 637 mmHg 66%
    05:00 +20°C° 0 mm 1 mps 637 mmHg 63%
    06:00 +22°C° 0 mm 1 mps 638 mmHg 61%
    07:00 +23°C° 0 mm 1 mps 639 mmHg 56%
    08:00 +25°C° 0 mm 1 mps 639 mmHg 51%
    09:00 +26°C° 0 mm 1 mps 640 mmHg 46%
    10:00 +26°C° 0.2 mm 2 mps 640 mmHg 46%
    11:00 +27°C° 0.2 mm 2 mps 640 mmHg 47%
    12:00 +27°C° 0.2 mm 3 mps 640 mmHg 48%
    13:00 +27°C° 0.5 mm 3 mps 640 mmHg 48%
    14:00 +27°C° 0.5 mm 2 mps 640 mmHg 48%
    15:00 +27°C° 0.5 mm 2 mps 640 mmHg 48%
    16:00 +26°C° 0.2 mm 2 mps 639 mmHg 50%
    17:00 +26°C° 0.2 mm 2 mps 639 mmHg 53%
    18:00 +25°C° 0.2 mm 2 mps 639 mmHg 55%
    19:00 +23°C° 0 mm 1 mps 638 mmHg 58%
    20:00 +21°C° 0 mm 1 mps 638 mmHg 60%
    21:00 +19°C° 0 mm 1 mps 637 mmHg 63%
    22:00 +18°C° 0 mm 1 mps 637 mmHg 64%
    23:00 +18°C° 0 mm 1 mps 637 mmHg 65%

    Day after tomorrow, 26 June, Wednesday

    Time Temperature Precipitation Wind Pressure Humidity
    00:00 +16°C° 0 mm 1 mps 636 mmHg 66%
    01:00 +16°C° 0 mm 1 mps 636 mmHg 65%
    02:00 +16°C° 0 mm 1 mps 636 mmHg 65%
    03:00 +16°C° 0 mm 1 mps 637 mmHg 64%
    04:00 +18°C° 0 mm 1 mps 637 mmHg 62%
    05:00 +20°C° 0 mm 1 mps 638 mmHg 61%
    06:00 +21°C° 0 mm 1 mps 638 mmHg 59%
    07:00 +23°C° 0 mm 1 mps 639 mmHg 55%
    08:00 +24°C° 0 mm 1 mps 640 mmHg 51%
    09:00 +25°C° 0 mm 1 mps 640 mmHg 47%
    10:00 +25°C° 0.4 mm 2 mps 640 mmHg 50%
    11:00 +26°C° 0.4 mm 2 mps 640 mmHg 53%
    12:00 +26°C° 0.4 mm 3 mps 640 mmHg 56%
    13:00 +26°C° 0.9 mm 2 mps 640 mmHg 57%
    14:00 +26°C° 0.9 mm 2 mps 640 mmHg 57%
    15:00 +25°C° 0.9 mm 2 mps 639 mmHg 57%
    16:00 +25°C° 0.5 mm 2 mps 639 mmHg 60%
    17:00 +24°C° 0.5 mm 2 mps 639 mmHg 63%
    18:00 +23°C° 0.5 mm 1 mps 638 mmHg 66%
    19:00 +21°C° 0.1 mm 1 mps 638 mmHg 72%
    20:00 +19°C° 0.1 mm 1 mps 637 mmHg 77%
    21:00 +15°C° 0.1 mm 0 mps 637 mmHg 83%
    22:00 +15°C° 0 mm 0 mps 637 mmHg 84%
    23:00 +14°C° 0 mm 0 mps 636 mmHg 85%

    27 June, Thursday

    Time Temperature Precipitation Wind Pressure Humidity
    00:00 +15°C° 0 mm 1 mps 636 mmHg 86%
    01:00 +15°C° 0 mm 1 mps 636 mmHg 86%
    02:00 +15°C° 0 mm 1 mps 636 mmHg 86%
    03:00 +15°C° 0 mm 1 mps 636 mmHg 86%
    04:00 +15°C° 0.1 mm 0 mps 636 mmHg 82%
    05:00 +16°C° 0.1 mm 0 mps 637 mmHg 79%
    06:00 +17°C° 0.1 mm 0 mps 637 mmHg 76%
    07:00 +20°C° 0.7 mm 1 mps 637 mmHg 74%
    08:00 +21°C° 0.7 mm 1 mps 638 mmHg 73%
    09:00 +21°C° 0.7 mm 2 mps 638 mmHg 71%
    10:00 +21°C° 1 mm 2 mps 638 mmHg 72%
    11:00 +21°C° 1 mm 2 mps 637 mmHg 73%
    12:00 +23°C° 1 mm 2 mps 637 mmHg 74%
    13:00 +21°C° 1 mm 2 mps 637 mmHg 75%
    14:00 +21°C° 1 mm 2 mps 636 mmHg 76%
    15:00 +21°C° 1 mm 2 mps 636 mmHg 76%
    16:00 +21°C° 0.2 mm 2 mps 636 mmHg 78%
    17:00 +21°C° 0.2 mm 2 mps 636 mmHg 79%
    18:00 +20°C° 0.2 mm 2 mps 635 mmHg 80%
    19:00 +20°C° 0.1 mm 1 mps 635 mmHg 84%
    20:00 +18°C° 0.1 mm 1 mps 634 mmHg 88%
    21:00 +16°C° 0.1 mm 1 mps 634 mmHg 91%
    22:00 +15°C° 0 mm 1 mps 634 mmHg 91%
    23:00 +15°C° 0 mm 1 mps 633 mmHg 90%

    28 June, Friday

    Time Temperature Precipitation Wind Pressure Humidity
    00:00 +14°C° 0 mm 1 mps 633 mmHg 90%
    01:00 +14°C° 0 mm 1 mps 632 mmHg 88%
    02:00 +14°C° 0 mm 1 mps 632 mmHg 87%
    03:00 +14°C° 0 mm 1 mps 632 mmHg 86%
    04:00 +15°C° 0 mm 1 mps 632 mmHg 84%
    05:00 +16°C° 0 mm 1 mps 632 mmHg 82%
    06:00 +18°C° 0 mm 1 mps 633 mmHg 80%
    07:00 +19°C° 0 mm 2 mps 633 mmHg 76%
    08:00 +20°C° 0 mm 2 mps 633 mmHg 72%
    09:00 +23°C° 0 mm 2 mps 633 mmHg 68%
    10:00 +23°C° 0.5 mm 2 mps 633 mmHg 66%
    11:00 +24°C° 0.5 mm 2 mps 633 mmHg 64%
    12:00 +24°C° 0.5 mm 2 mps 633 mmHg 63%
    13:00 +24°C° 0.9 mm 2 mps 632 mmHg 64%
    14:00 +24°C° 0.9 mm 2 mps 632 mmHg 65%
    15:00 +24°C° 0.9 mm 2 mps 632 mmHg 66%
    16:00 +24°C° 0.7 mm 2 mps 631 mmHg 69%
    17:00 +23°C° 0.7 mm 2 mps 631 mmHg 72%
    18:00 +22°C° 0.7 mm 1 mps 631 mmHg 75%
    19:00 +21°C° 0 mm 1 mps 631 mmHg 76%
    20:00 +20°C° 0 mm 1 mps 631 mmHg 78%
    21:00 +18°C° 0 mm 1 mps 630 mmHg 79%
    22:00 +18°C° 0.1 mm 1 mps 630 mmHg 80%
    23:00 +18°C° 0.1 mm 1 mps 630 mmHg 82%

    29 June, Saturday

    Time Temperature Precipitation Wind Pressure Humidity
    00:00 +18°C° 0.1 mm 1 mps 630 mmHg 84%
    01:00 +18°C° 0.1 mm 1 mps 630 mmHg 84%
    02:00 +18°C° 0.1 mm 1 mps 630 mmHg 84%
    03:00 +16°C° 0.1 mm 0 mps 630 mmHg 85%
    04:00 +16°C° 0 mm 0 mps 630 mmHg 85%
    05:00 +16°C° 0 mm 0 mps 630 mmHg 84%
    06:00 +17°C° 0 mm 0 mps 630 mmHg 84%
    07:00 +20°C° 0.1 mm 1 mps 631 mmHg 80%
    08:00 +21°C° 0.1 mm 1 mps 631 mmHg 76%
    09:00 +21°C° 0.1 mm 2 mps 631 mmHg 72%
    10:00 +21°C° 0.7 mm 2 mps 631 mmHg 72%
    11:00 +23°C° 0.7 mm 2 mps 631 mmHg 71%
    12:00 +22°C° 0.7 mm 3 mps 631 mmHg 71%
    13:00 +22°C° 0.7 mm 3 mps 631 mmHg 70%
    14:00 +24°C° 0.7 mm 2 mps 631 mmHg 69%
    15:00 +24°C° 0.7 mm 2 mps 631 mmHg 68%
    16:00 +23°C° 0.5 mm 2 mps 630 mmHg 71%
    17:00 +21°C° 0.5 mm 2 mps 630 mmHg 74%
    18:00 +21°C° 0.5 mm 2 mps 630 mmHg 78%
    19:00 +20°C° 0.4 mm 2 mps 630 mmHg 81%
    20:00 +19°C° 0.4 mm 1 mps 630 mmHg 85%
    21:00 +18°C° 0.4 mm 1 mps 630 mmHg 89%
    22:00 +18°C° 0.6 mm 1 mps 630 mmHg 91%
    23:00 +18°C° 0.6 mm 1 mps 631 mmHg 93%
    Show more